AUA1M LOWW-LOWI

Flight info

Callsign AUA1M
Flight time 0h 43m
Altitude 30000
Route SOVIL DCT SITNI DCT BAGSI DCT NANIT
Aircraft A20N/M-SDE2E3FGHIRWXY/LB1

Departure

Time 2026-05-04 11:44
Airport Vienna International Airport (LOWW)

Arrival

Time 2026-05-04 12:28
Airport Innsbruck Airport (LOWI)
Time Latitude Longitude Altitude Speed Heading
2026-05-04 11:25 48.11845 16.56930 609 ft 0 kts 205°
2026-05-04 11:39 48.11858 16.56940 609 ft 2 kts 206°
2026-05-04 11:40 48.11935 16.56966 609 ft 2 kts 133°
2026-05-04 11:41 48.11940 16.56956 609 ft 1 kts 116°
2026-05-04 11:41 48.11943 16.56948 609 ft 0 kts 116°
2026-05-04 11:42 48.11942 16.56950 609 ft 1 kts 120°
2026-05-04 11:42 48.11909 16.57043 609 ft 18 kts 117°
2026-05-04 11:43 48.11836 16.57267 609 ft 25 kts 116°
2026-05-04 11:43 48.11829 16.57515 609 ft 24 kts 75°
2026-05-04 11:43 48.11859 16.57755 609 ft 22 kts 100°
2026-05-04 11:43 48.11788 16.57896 609 ft 17 kts 163°
2026-05-04 11:44 48.11506 16.58015 609 ft 79 kts 164°
2026-05-04 11:44 48.10746 16.58336 609 ft 145 kts 164°
2026-05-04 11:44 48.09658 16.58800 943 ft 169 kts 165°
2026-05-04 11:44 48.08537 16.59263 1622 ft 171 kts 165°
2026-05-04 11:45 48.07386 16.59721 2186 ft 180 kts 165°
2026-05-04 11:45 48.06100 16.59975 2591 ft 200 kts 191°
2026-05-04 11:45 48.04863 16.58926 3068 ft 217 kts 231°
2026-05-04 11:45 48.03967 16.57085 3815 ft 224 kts 235°
2026-05-04 11:46 48.03086 16.55175 4635 ft 227 kts 240°
2026-05-04 11:46 48.02623 16.52931 5457 ft 230 kts 268°
2026-05-04 11:46 48.02641 16.50529 6174 ft 240 kts 272°
2026-05-04 11:46 48.02715 16.47960 6705 ft 258 kts 273°
2026-05-04 11:47 48.02796 16.45182 7272 ft 275 kts 273°
2026-05-04 11:47 48.02873 16.42287 8089 ft 281 kts 272°
2026-05-04 11:47 48.02943 16.39409 8978 ft 284 kts 272°
2026-05-04 11:47 48.03011 16.36435 9854 ft 288 kts 272°
2026-05-04 11:48 48.03076 16.33448 10619 ft 295 kts 271°
2026-05-04 11:48 48.03142 16.30316 11082 ft 312 kts 271°
2026-05-04 11:48 48.03212 16.26969 11495 ft 331 kts 271°
2026-05-04 11:48 48.03283 16.23420 11874 ft 349 kts 271°
2026-05-04 11:49 48.03353 16.19750 12378 ft 361 kts 271°
2026-05-04 11:49 48.03425 16.15976 13135 ft 365 kts 271°
2026-05-04 11:49 48.03496 16.12177 13901 ft 368 kts 271°
2026-05-04 11:49 48.03567 16.08335 14623 ft 372 kts 271°
2026-05-04 11:50 48.03639 16.04398 15337 ft 376 kts 271°
2026-05-04 11:50 48.03708 16.00477 16026 ft 380 kts 271°
2026-05-04 11:50 48.03777 15.96521 16698 ft 384 kts 271°
2026-05-04 11:50 48.03846 15.92485 17359 ft 388 kts 271°
2026-05-04 11:51 48.03914 15.88482 17992 ft 391 kts 271°
2026-05-04 11:51 48.03981 15.84371 18619 ft 395 kts 271°
2026-05-04 11:51 48.04047 15.80262 19224 ft 399 kts 271°
2026-05-04 11:51 48.04112 15.76119 19814 ft 402 kts 271°
2026-05-04 11:52 48.04176 15.71949 20388 ft 406 kts 271°
2026-05-04 11:52 48.04240 15.67681 20958 ft 409 kts 271°
2026-05-04 11:52 48.04302 15.63446 21505 ft 412 kts 271°
2026-05-04 11:52 48.04363 15.59109 22046 ft 416 kts 271°
2026-05-04 11:53 48.04423 15.54770 22573 ft 419 kts 271°
2026-05-04 11:53 48.04481 15.50449 23074 ft 422 kts 271°
2026-05-04 11:53 48.04538 15.46054 23565 ft 425 kts 271°
2026-05-04 11:53 48.04594 15.41602 24044 ft 429 kts 271°
2026-05-04 11:55 48.05070 15.09800 27392 ft 438 kts 271°
2026-05-04 11:55 48.05134 15.05285 27917 ft 437 kts 271°
2026-05-04 11:56 48.05197 15.00745 28418 ft 436 kts 271°
2026-05-04 11:56 48.05257 14.96238 28845 ft 437 kts 271°
2026-05-04 11:56 48.05316 14.91672 29226 ft 439 kts 271°
2026-05-04 11:56 48.05374 14.87074 29601 ft 441 kts 271°
2026-05-04 11:57 48.05429 14.82472 29932 ft 443 kts 271°
2026-05-04 11:57 48.05511 14.73222 29990 ft 445 kts 271°
2026-05-04 11:58 48.05578 14.64009 29993 ft 445 kts 271°
2026-05-04 11:58 48.05641 14.54763 29993 ft 445 kts 271°
2026-05-04 11:59 48.05696 14.45520 29993 ft 445 kts 271°
2026-05-04 11:59 48.05706 14.36258 29991 ft 445 kts 268°
2026-05-04 12:00 48.04720 14.27175 29992 ft 445 kts 253°
2026-05-04 12:00 48.02393 14.18611 29994 ft 445 kts 244°
2026-05-04 12:01 47.99613 14.10290 29993 ft 445 kts 243°
2026-05-04 12:02 47.89977 13.81528 29993 ft 445 kts 243°
2026-05-04 12:03 47.87170 13.73173 29992 ft 445 kts 243°
2026-05-04 12:03 47.84378 13.64893 29845 ft 446 kts 243°
2026-05-04 12:04 47.82997 13.60804 29595 ft 444 kts 243°
2026-05-04 12:04 47.81611 13.56709 29343 ft 441 kts 243°
2026-05-04 12:04 47.80246 13.52681 29094 ft 439 kts 243°
2026-05-04 12:04 47.78875 13.48642 28844 ft 436 kts 243°
2026-05-04 12:05 47.77507 13.44620 28593 ft 436 kts 243°
2026-05-04 12:05 47.76124 13.40558 28340 ft 436 kts 243°
2026-05-04 12:05 47.74760 13.36560 28023 ft 437 kts 243°
2026-05-04 12:05 47.73384 13.32531 27470 ft 438 kts 243°
2026-05-04 12:06 47.71991 13.28457 26767 ft 439 kts 243°
2026-05-04 12:06 47.70630 13.24486 26269 ft 437 kts 243°
2026-05-04 12:06 47.69240 13.20435 25751 ft 436 kts 243°
2026-05-04 12:06 47.67866 13.16438 25225 ft 433 kts 243°
2026-05-04 12:07 47.66508 13.12494 24695 ft 429 kts 243°
2026-05-04 12:07 47.65158 13.08578 24162 ft 426 kts 243°
2026-05-04 12:07 47.63814 13.04684 23628 ft 422 kts 243°
2026-05-04 12:07 47.62491 13.00858 23100 ft 419 kts 243°
2026-05-04 12:08 47.61172 12.97047 22569 ft 416 kts 243°
2026-05-04 12:08 47.59845 12.93221 22034 ft 413 kts 243°
2026-05-04 12:08 47.58547 12.89483 21508 ft 410 kts 243°
2026-05-04 12:08 47.57244 12.85737 20976 ft 407 kts 243°
2026-05-04 12:09 47.55942 12.82000 20443 ft 404 kts 243°
2026-05-04 12:09 47.54663 12.78333 19866 ft 403 kts 243°
2026-05-04 12:09 47.53388 12.74681 19294 ft 401 kts 243°
2026-05-04 12:09 47.52100 12.70999 18738 ft 398 kts 243°
2026-05-04 12:10 47.50836 12.67390 18200 ft 395 kts 243°
2026-05-04 12:10 47.49591 12.63840 17673 ft 392 kts 243°
2026-05-04 12:10 47.48327 12.60240 17137 ft 389 kts 243°
2026-05-04 12:10 47.47091 12.56723 16612 ft 386 kts 243°
2026-05-04 12:11 47.45853 12.53206 16083 ft 383 kts 243°
2026-05-04 12:11 47.44634 12.49747 15562 ft 380 kts 243°
2026-05-04 12:11 47.43428 12.46332 15337 ft 367 kts 243°
2026-05-04 12:11 47.42279 12.43084 15232 ft 352 kts 243°
2026-05-04 12:12 47.41159 12.39918 15119 ft 338 kts 243°
2026-05-04 12:12 47.40131 12.36915 15012 ft 325 kts 248°
2026-05-04 12:12 47.39573 12.33753 14974 ft 309 kts 264°
2026-05-04 12:12 47.39604 12.30592 14613 ft 307 kts 276°
2026-05-04 12:13 47.39892 12.27482 14261 ft 304 kts 278°
2026-05-04 12:14 47.41895 12.06959 12203 ft 274 kts 278°
2026-05-04 12:15 47.42149 12.04208 11949 ft 269 kts 278°
2026-05-04 12:15 47.42399 12.01500 11693 ft 264 kts 278°
2026-05-04 12:15 47.42645 11.98829 11437 ft 260 kts 278°
2026-05-04 12:15 47.42819 11.96189 11174 ft 256 kts 265°
2026-05-04 12:16 47.42278 11.93739 10921 ft 250 kts 234°
2026-05-04 12:16 47.41024 11.92047 10699 ft 244 kts 212°
2026-05-04 12:16 47.39572 11.90783 10466 ft 244 kts 210°
2026-05-04 12:16 47.38090 11.89543 10242 ft 244 kts 210°
2026-05-04 12:17 47.36626 11.88299 10013 ft 243 kts 210°
2026-05-04 12:17 47.35177 11.87048 9781 ft 242 kts 211°
2026-05-04 12:17 47.33935 11.85455 9559 ft 237 kts 232°
2026-05-04 12:17 47.33118 11.83419 9514 ft 223 kts 248°
2026-05-04 12:18 47.32656 11.81259 9447 ft 221 kts 258°
2026-05-04 12:18 47.32390 11.79045 9159 ft 222 kts 261°
2026-05-04 12:18 47.32145 11.76785 8787 ft 225 kts 261°
2026-05-04 12:18 47.31865 11.74488 8404 ft 228 kts 259°
2026-05-04 12:19 47.31549 11.72178 8018 ft 231 kts 258°
2026-05-04 12:19 47.31213 11.69880 7632 ft 233 kts 258°
2026-05-04 12:19 47.30862 11.67573 7247 ft 226 kts 257°
2026-05-04 12:19 47.30525 11.65381 6877 ft 219 kts 257°
2026-05-04 12:20 47.30191 11.63204 6515 ft 213 kts 257°
2026-05-04 12:20 47.29874 11.61127 6176 ft 209 kts 258°
2026-05-04 12:20 47.29557 11.59035 5852 ft 207 kts 258°
2026-05-04 12:20 47.29248 11.56983 5536 ft 204 kts 258°
2026-05-04 12:21 47.28941 11.54931 5132 ft 206 kts 258°
2026-05-04 12:21 47.28637 11.52892 4801 ft 204 kts 258°
2026-05-04 12:21 47.28334 11.50861 4468 ft 202 kts 258°
2026-05-04 12:21 47.28038 11.48868 4132 ft 195 kts 258°
2026-05-04 12:22 47.27761 11.46981 3853 ft 183 kts 258°
2026-05-04 12:22 47.27391 11.45308 3718 ft 159 kts 242°
2026-05-04 12:22 47.26830 11.44040 3685 ft 142 kts 234°
2026-05-04 12:22 47.26245 11.42863 3706 ft 141 kts 234°
2026-05-04 12:23 47.25657 11.41700 3716 ft 141 kts 233°
2026-05-04 12:23 47.25070 11.40541 3721 ft 141 kts 233°
2026-05-04 12:23 47.24485 11.39388 3723 ft 141 kts 233°
2026-05-04 12:23 47.23897 11.38224 3724 ft 141 kts 236°
2026-05-04 12:24 47.23450 11.36945 3722 ft 141 kts 251°
2026-05-04 12:24 47.23239 11.35554 3724 ft 141 kts 264°
2026-05-04 12:24 47.23162 11.34105 3725 ft 141 kts 266°
2026-05-04 12:24 47.23110 11.32656 3725 ft 141 kts 267°
2026-05-04 12:25 47.23062 11.31212 3724 ft 141 kts 267°
2026-05-04 12:25 47.23015 11.29787 3724 ft 141 kts 267°
2026-05-04 12:25 47.22968 11.28326 3724 ft 141 kts 269°
2026-05-04 12:25 47.23203 11.26960 3709 ft 141 kts 304°
2026-05-04 12:26 47.23968 11.26105 3649 ft 141 kts 350°
2026-05-04 12:26 47.24898 11.26442 3401 ft 142 kts 40°
2026-05-04 12:26 47.25367 11.27669 3028 ft 142 kts 81°
2026-05-04 12:26 47.25462 11.29096 2686 ft 138 kts 83°
2026-05-04 12:27 47.25602 11.30499 2438 ft 139 kts 80°
2026-05-04 12:27 47.25751 11.31898 2160 ft 138 kts 81°
2026-05-04 12:27 47.25898 11.33270 1941 ft 137 kts 81°
2026-05-04 12:27 47.26030 11.34487 1907 ft 83 kts 82°
2026-05-04 12:28 47.26086 11.35012 1904 ft 34 kts 81°
2026-05-04 12:28 47.26105 11.35212 1903 ft 10 kts 96°
2026-05-04 12:28 47.26043 11.35261 1903 ft 11 kts 170°
2026-05-04 12:28 47.25972 11.35278 1903 ft 8 kts 170°
2026-05-04 12:29 47.25915 11.35283 1904 ft 8 kts 210°
2026-05-04 12:29 47.25894 11.35213 1904 ft 6 kts 260°
2026-05-04 12:29 47.25887 11.35145 1904 ft 6 kts 260°
2026-05-04 12:29 47.25869 11.35109 1905 ft 6 kts 182°
2026-05-04 12:30 47.25841 11.35116 1905 ft 3 kts 170°
2026-05-04 12:30 47.25825 11.35119 1905 ft 0 kts 170°